Погода в Йыгеве

Эстония     58°44′24″N   26°23′24″E
темп.,
°C
ветер,
м/с
пор.,
м/с
влажн.,
%
обл.,
%
осадки,
мм/ч
давл.,
гПа
погр.,
м
18 апреля, вс
вс1800:00+6св3117190 0.0 1027268
03:00+5св3107853 0.0 1027227
06:00+4св39835 0.0 1027194
09:00+8всв48675 0.0 1028376
12:00+12всв57484 0.0 1028875
15:00+14всв47360 0.0 10271376
18:00+13св47420 0.0 10261664
21:00+7ссв38695 0.0 1028185
19 апреля, пн
пн1900:00+6св39762 0.0 1028227
03:00+4всв27835 0.0 1029154
06:00+3всв25905 0.0 102999
09:00+8всв36705 0.0 1029363
12:00+11всв46555 0.0 1028995
15:00+12в464722 0.0 10281355
18:00+12в364564 0.0 10261295
21:00+7ссв376867 0.0 1027167
20 апреля, вт
вт2000:00+5всв247518 0.0 102685
03:00+3в228228 0.0 102530
06:00+2в22885 0.0 102522
09:00+7в346611 0.0 1024423
12:00+9всв34515 0.0 10221563
15:00+10всв344273 0.0 10201902
18:00+10в344281 0.0 10181703
21:00+6вюв2363100 0.0 101765
21 апреля, ср
ср2100:00+3вюв1389100 0.0 101699
03:00+1всв229484 0.0 101455
06:00+1св139855 0.0 101277
09:00+4св2382100 0.0 1009399
12:00+6ссз226491 0.0 10071032
15:00+7сз2359100 0.1 10051292
18:00+7с236248 0.0 1005840
21:00+4вюв117971 0.0 100510
22 апреля, чт
чт2200:00+3ююв22855 0.0 100513
03:00+2юз229293 0.0 100515
06:00+2ююз119026 0.0 100613
09:00+7ююз2469100 0.0 1006362
12:00+10ю3561100 0.0 10071243
15:00+5зюз2594100 1.6 1008396
18:00+6зюз2481100 0.1 1009771
21:00+4вюв119187 0.3 100913